START_TIME,STEP,MOV.,P11,t_acc.,P23,t_acc.,P27,t_acc.,A4,t_acc.
1981-08-28 06:00:23.830 ,0,0,1.,4.8,0.,4.8,1.,4.8,0.,4.8
1981-08-28 06:00:28.630 ,0,0,1.,4.8,0.,4.8,0.,4.8,0.,4.8
1981-08-28 06:00:33.430 ,0,0,0.,4.8,0.,4.8,0.,4.8,0.,4.8
1981-08-28 06:00:38.230 ,0,0,0.,4.8,0.,4.8,0.,4.8,0.,4.8
1981-08-28 06:00:43.030 ,0,0,0.,4.8,0.,4.8,0.,4.8,0.,4.8
1981-08-28 06:00:47.830 ,1,0,0.,4.8,0.,4.8,0.,4.8,0.,4.8
1981-08-28 06:00:52.630 ,1,0,0.,4.8,0.,4.8,0.,4.8,0.,4.8
1981-08-28 06:00:57.430 ,1,0,1.,4.8,0.,4.8,0.,4.8,0.,4.8
1981-08-28 06:01:02.230 ,1,0,0.,4.8,0.,4.8,0.,4.8,0.,4.8
1981-08-28 06:01:07.030 ,1,0,0.,4.8,0.,4.8,0.,4.8,0.,4.8
1981-08-28 06:01:11.830 ,1,0,0.,4.8,0.,4.8,0.,4.8,0.,4.8
1981-08-28 06:01:16.630 ,1,0,2.,4.8,0.,4.8,0.,4.8,0.,4.8
1981-08-28 06:01:21.430 ,1,0,2.,4.8,0.,4.8,0.,4.8,0.,4.8
1981-08-28 06:01:26.230 ,1,0,0.,4.8,0.,4.8,0.,4.8,0.,4.8
1981-08-28 06:01:31.030 ,1,0,0.,4.8,0.,4.8,0.,4.8,0.,4.8
1981-08-28 06:01:35.830 ,2,0,0.,4.8,0.,4.8,0.,4.8,0.,4.8
1981-08-28 06:01:40.630 ,2,0,0.,4.8,0.,4.8,0.,4.8,0.,4.8
1981-08-28 06:01:45.430 ,2,0,0.,4.8,0.,4.8,0.,4.8,0.,4.8
1981-08-28 06:01:50.230 ,2,0,0.,4.8,0.,4.8,0.,4.8,0.,4.8
1981-08-28 06:01:55.030 ,2,0,1.,4.8,0.,4.8,0.,4.8,0.,4.8
1981-08-28 06:01:59.830 ,2,0,0.,4.8,0.,4.8,0.,4.8,0.,4.8
1981-08-28 06:02:04.630 ,2,0,0.,4.8,0.,4.8,0.,4.8,0.,4.8
1981-08-28 06:02:09.430 ,2,0,0.,4.8,0.,4.8,0.,4.8,0.,4.8
1981-08-28 06:02:14.230 ,2,0,0.,4.8,0.,4.8,0.,4.8,0.,4.8
1981-08-28 06:02:19.030 ,2,0,1.,4.8,0.,4.8,0.,4.8,0.,4.8
1981-08-28 06:02:23.830 ,3,0,0.,4.8,0.,4.8,0.,4.8,0.,4.8
1981-08-28 06:02:28.630 ,3,0,0.,4.8,0.,4.8,0.,4.8,0.,4.8
1981-08-28 06:02:33.430 ,3,0,0.,4.8,0.,4.8,0.,4.8,0.,4.8
1981-08-28 06:02:38.230 ,3,0,0.,4.8,0.,4.8,0.,4.8,0.,4.8
1981-08-28 06:02:43.030 ,3,0,0.,4.8,0.,4.8,0.,4.8,0.,4.8
1981-08-28 06:02:47.830 ,3,0,0.,4.8,0.,4.8,0.,4.8,0.,4.8
1981-08-28 06:02:52.630 ,3,0,0.,4.8,0.,4.8,0.,4.8,0.,4.8
1981-08-28 06:02:57.430 ,3,0,0.,4.8,0.,4.8,1.,4.8,0.,4.8
1981-08-28 06:03:02.230 ,3,0,0.,4.8,0.,4.8,0.,4.8,0.,4.8
1981-08-28 06:03:07.030 ,3,0,0.,4.8,0.,4.8,0.,4.8,0.,4.8
1981-08-28 06:03:11.830 ,4,0,0.,4.8,0.,4.8,0.,4.8,0.,4.8
1981-08-28 06:03:16.630 ,4,0,0.,4.8,0.,4.8,0.,4.8,0.,4.8
1981-08-28 06:03:21.430 ,4,0,0.,4.8,0.,4.8,0.,4.8,0.,4.8
1981-08-28 06:03:26.230 ,4,0,0.,4.8,0.,4.8,0.,4.8,0.,4.8
1981-08-28 06:03:31.030 ,4,0,0.,4.8,0.,4.8,0.,4.8,0.,4.8
1981-08-28 06:03:35.830 ,4,0,0.,4.8,0.,4.8,0.,4.8,0.,4.8
1981-08-28 06:03:40.630 ,4,0,0.,4.8,0.,4.8,0.,4.8,0.,4.8
1981-08-28 06:03:45.430 ,4,0,0.,4.8,0.,4.8,0.,4.8,0.,4.8
1981-08-28 06:03:50.230 ,4,0,0.,4.8,0.,4.8,0.,4.8,0.,4.8
1981-08-28 06:03:55.030 ,4,0,0.,4.8,0.,4.8,0.,4.8,0.,4.8
1981-08-28 06:03:59.830 ,5,0,1.,4.8,0.,4.8,0.,4.8,0.,4.8
1981-08-28 06:04:04.630 ,5,0,0.,4.8,0.,4.8,0.,4.8,0.,4.8
1981-08-28 06:04:09.430 ,5,0,0.,4.8,0.,4.8,0.,4.8,0.,4.8
1981-08-28 06:04:14.230 ,5,0,1.,4.8,0.,4.8,0.,4.8,0.,4.8
1981-08-28 06:04:19.030 ,5,0,0.,4.8,0.,4.8,0.,4.8,0.,4.8
1981-08-28 06:04:23.830 ,5,0,1.,4.8,0.,4.8,0.,4.8,0.,4.8
1981-08-28 06:04:28.630 ,5,0,0.,4.8,0.,4.8,0.,4.8,0.,4.8
1981-08-28 06:04:33.430 ,5,0,0.,4.8,0.,4.8,0.,4.8,0.,4.8
1981-08-28 06:04:38.230 ,5,0,1.,4.8,0.,4.8,0.,4.8,0.,4.8
1981-08-28 06:04:43.030 ,5,0,1.,4.8,0.,4.8,0.,4.8,0.,4.8
1981-08-28 06:04:47.830 ,6,0,0.,4.8,0.,4.8,0.,4.8,0.,4.8
1981-08-28 06:04:52.630 ,6,0,0.,4.8,0.,4.8,0.,4.8,0.,4.8
1981-08-28 06:04:57.430 ,6,0,0.,4.8,0.,4.8,1.,4.8,0.,4.8
1981-08-28 06:05:02.230 ,6,0,0.,4.8,1.,4.8,0.,4.8,0.,4.8
1981-08-28 06:05:07.030 ,6,0,0.,4.8,0.,4.8,0.,4.8,0.,4.8
1981-08-28 06:05:11.830 ,6,0,0.,4.8,0.,4.8,0.,4.8,0.,4.8
1981-08-28 06:05:16.630 ,6,0,1.,4.8,0.,4.8,0.,4.8,0.,4.8
1981-08-28 06:05:21.430 ,6,0,0.,4.8,0.,4.8,0.,4.8,0.,4.8
1981-08-28 06:05:26.230 ,6,0,0.,4.8,0.,4.8,0.,4.8,0.,4.8
1981-08-28 06:05:31.030 ,6,0,0.,4.8,0.,4.8,0.,4.8,0.,4.8
1981-08-28 06:05:35.830 ,7,0,1.,4.8,0.,4.8,0.,4.8,0.,4.8
1981-08-28 06:05:40.630 ,7,0,0.,4.8,0.,4.8,0.,4.8,0.,4.8
1981-08-28 06:05:45.430 ,7,0,0.,4.8,0.,4.8,0.,4.8,0.,4.8
1981-08-28 06:05:50.230 ,7,0,0.,4.8,0.,4.8,0.,4.8,0.,4.8
1981-08-28 06:05:55.030 ,7,0,0.,4.8,0.,4.8,0.,4.8,0.,4.8
1981-08-28 06:05:59.830 ,7,0,1.,4.8,0.,4.8,0.,4.8,0.,4.8
1981-08-28 06:06:04.630 ,7,0,0.,4.8,0.,4.8,0.,4.8,0.,4.8
1981-08-28 06:06:09.430 ,7,0,0.,4.8,0.,4.8,0.,4.8,0.,4.8
1981-08-28 06:06:14.230 ,7,0,0.,4.8,0.,4.8,0.,4.8,0.,4.8
1981-08-28 06:06:19.030 ,7,0,1.,4.8,0.,4.8,0.,4.8,0.,4.8
1981-08-28 06:06:23.830 ,7,0,0.,4.8,0.,4.8,1.,4.8,0.,4.8
1981-08-28 06:06:28.630 ,7,0,0.,4.8,0.,4.8,0.,4.8,0.,4.8
1981-08-28 06:06:33.430 ,7,0,0.,4.8,0.,4.8,0.,4.8,0.,4.8
1981-08-28 06:06:38.230 ,7,0,0.,4.8,0.,4.8,0.,4.8,0.,4.8
1981-08-28 06:06:43.030 ,7,0,0.,4.8,0.,4.8,0.,4.8,0.,4.8
1981-08-28 06:06:47.830 ,6,0,1.,4.8,0.,4.8,0.,4.8,0.,4.8
1981-08-28 06:06:52.630 ,6,0,0.,4.8,0.,4.8,0.,4.8,0.,4.8
1981-08-28 06:06:57.430 ,6,0,1.,4.8,0.,4.8,0.,4.8,0.,4.8
1981-08-28 06:07:02.230 ,6,0,0.,4.8,0.,4.8,0.,4.8,0.,4.8
1981-08-28 06:07:07.030 ,6,0,0.,4.8,0.,4.8,0.,4.8,0.,4.8
1981-08-28 06:07:11.830 ,5,0,0.,4.8,0.,4.8,0.,4.8,0.,4.8
1981-08-28 06:07:16.630 ,5,0,1.,4.8,0.,4.8,0.,4.8,0.,4.8
1981-08-28 06:07:21.430 ,5,0,0.,4.8,0.,4.8,0.,4.8,0.,4.8
1981-08-28 06:07:26.230 ,5,0,0.,4.8,0.,4.8,0.,4.8,0.,4.8
1981-08-28 06:07:31.030 ,5,0,0.,4.8,0.,4.8,0.,4.8,0.,4.8
1981-08-28 06:07:35.830 ,4,0,0.,4.8,0.,4.8,0.,4.8,0.,4.8
1981-08-28 06:07:40.630 ,4,0,0.,4.8,0.,4.8,0.,4.8,0.,4.8
1981-08-28 06:07:45.430 ,4,0,0.,4.8,0.,4.8,0.,4.8,0.,4.8
1981-08-28 06:07:50.230 ,4,0,1.,4.8,0.,4.8,0.,4.8,0.,4.8
1981-08-28 06:07:55.030 ,4,0,0.,4.8,0.,4.8,0.,4.8,0.,4.8
1981-08-28 06:07:59.830 ,3,0,0.,4.8,0.,4.8,0.,4.8,0.,4.8
1981-08-28 06:08:04.630 ,3,0,0.,4.8,0.,4.8,0.,4.8,0.,4.8
1981-08-28 06:08:09.430 ,3,0,0.,4.8,0.,4.8,0.,4.8,0.,4.8
1981-08-28 06:08:14.230 ,3,0,1.,4.8,0.,4.8,1.,4.8,0.,4.8
1981-08-28 06:08:19.030 ,3,0,2.,4.8,0.,4.8,0.,4.8,0.,4.8
1981-08-28 06:08:23.830 ,2,0,0.,4.8,0.,4.8,0.,4.8,0.,4.8
1981-08-28 06:08:28.630 ,2,0,0.,4.8,0.,4.8,0.,4.8,0.,4.8
1981-08-28 06:08:33.430 ,2,0,0.,4.8,0.,4.8,0.,4.8,0.,4.8
1981-08-28 06:08:38.230 ,2,0,0.,4.8,0.,4.8,0.,4.8,0.,4.8
1981-08-28 06:08:43.030 ,2,0,0.,4.8,0.,4.8,0.,4.8,0.,4.8
1981-08-28 06:08:47.830 ,1,0,0.,4.8,0.,4.8,0.,4.8,0.,4.8
1981-08-28 06:08:52.630 ,1,0,2.,4.8,0.,4.8,0.,4.8,0.,4.8
1981-08-28 06:08:57.430 ,1,0,0.,4.8,0.,4.8,0.,4.8,0.,4.8
1981-08-28 06:09:02.230 ,1,0,1.,4.8,0.,4.8,0.,4.8,0.,4.8
1981-08-28 06:09:07.030 ,1,0,0.,4.8,1.,4.8,0.,4.8,0.,4.8
1981-08-28 06:09:11.830 ,0,0,0.,4.8,0.,4.8,0.,4.8,0.,4.8
1981-08-28 06:09:16.630 ,0,0,1.,4.8,0.,4.8,0.,4.8,0.,4.8
1981-08-28 06:09:21.430 ,0,0,0.,4.8,0.,4.8,0.,4.8,0.,4.8
1981-08-28 06:09:26.230 ,0,0,0.,4.8,0.,4.8,0.,4.8,0.,4.8
1981-08-28 06:09:31.030 ,0,0,0.,4.8,0.,4.8,0.,4.8,0.,4.8
1981-08-28 06:09:35.830 ,0,0,0.,4.8,0.,4.8,0.,4.8,0.,4.8
1981-08-28 06:09:40.630 ,0,0,0.,4.8,0.,4.8,0.,4.8,0.,4.8
1981-08-28 06:09:45.430 ,0,0,2.,4.8,0.,4.8,0.,4.8,0.,4.8
1981-08-28 06:09:50.230 ,0,0,0.,4.8,0.,4.8,0.,4.8,0.,4.8
1981-08-28 06:09:55.030 ,0,0,0.,4.8,0.,4.8,0.,4.8,0.,4.8
1981-08-28 06:09:59.830 ,1,0,0.,4.8,1.,4.8,0.,4.8,0.,4.8
1981-08-28 06:10:04.630 ,1,0,0.,4.8,0.,4.8,0.,4.8,0.,4.8
1981-08-28 06:10:09.430 ,1,0,0.,4.8,0.,4.8,0.,4.8,0.,4.8
1981-08-28 06:10:14.230 ,1,0,0.,4.8,0.,4.8,0.,4.8,0.,4.8
1981-08-28 06:10:19.030 ,1,0,0.,4.8,0.,4.8,0.,4.8,0.,4.8
1981-08-28 06:10:23.830 ,2,0,0.,4.8,0.,4.8,0.,4.8,0.,4.8
1981-08-28 06:10:28.630 ,2,0,1.,4.8,0.,4.8,0.,4.8,0.,4.8
1981-08-28 06:10:33.430 ,2,0,0.,4.8,0.,4.8,0.,4.8,0.,4.8
1981-08-28 06:10:38.230 ,2,0,1.,4.8,0.,4.8,0.,4.8,0.,4.8
1981-08-28 06:10:43.030 ,2,0,1.,4.8,0.,4.8,0.,4.8,0.,4.8
1981-08-28 06:10:47.830 ,3,0,0.,4.8,0.,4.8,1.,4.8,0.,4.8
1981-08-28 06:10:52.630 ,3,0,1.,4.8,0.,4.8,0.,4.8,0.,4.8
1981-08-28 06:10:57.430 ,3,0,0.,4.8,0.,4.8,0.,4.8,0.,4.8
1981-08-28 06:11:02.230 ,3,0,1.,4.8,0.,4.8,0.,4.8,0.,4.8
1981-08-28 06:11:07.030 ,3,0,0.,4.8,0.,4.8,1.,4.8,0.,4.8
1981-08-28 06:11:11.830 ,4,0,0.,4.8,0.,4.8,0.,4.8,0.,4.8
1981-08-28 06:11:16.630 ,4,0,0.,4.8,0.,4.8,0.,4.8,0.,4.8
1981-08-28 06:11:21.430 ,4,0,0.,4.8,0.,4.8,0.,4.8,0.,4.8
1981-08-28 06:11:26.230 ,4,0,0.,4.8,0.,4.8,0.,4.8,0.,4.8
1981-08-28 06:11:31.030 ,4,0,0.,4.8,0.,4.8,0.,4.8,0.,4.8
1981-08-28 06:11:35.830 ,5,0,1.,4.8,0.,4.8,0.,4.8,0.,4.8
1981-08-28 06:11:40.630 ,5,0,0.,4.8,0.,4.8,0.,4.8,0.,4.8
1981-08-28 06:11:45.430 ,5,0,1.,4.8,0.,4.8,0.,4.8,0.,4.8
1981-08-28 06:11:50.230 ,5,0,0.,4.8,0.,4.8,1.,4.8,0.,4.8
1981-08-28 06:11:55.030 ,5,0,0.,4.8,0.,4.8,0.,4.8,0.,4.8
1981-08-28 06:11:59.830 ,6,0,2.,4.8,0.,4.8,0.,4.8,0.,4.8
1981-08-28 06:12:04.630 ,6,0,0.,4.8,0.,4.8,0.,4.8,0.,4.8
1981-08-28 06:12:09.430 ,6,0,0.,4.8,0.,4.8,0.,4.8,0.,4.8
1981-08-28 06:12:14.230 ,6,0,1.,4.8,0.,4.8,1.,4.8,0.,4.8
1981-08-28 06:12:19.030 ,6,0,0.,4.8,0.,4.8,0.,4.8,0.,4.8
1981-08-28 06:12:23.830 ,7,0,0.,4.8,0.,4.8,1.,4.8,0.,4.8
1981-08-28 06:12:28.630 ,7,0,1.,4.8,0.,4.8,0.,4.8,0.,4.8
1981-08-28 06:12:33.430 ,7,0,0.,4.8,0.,4.8,0.,4.8,0.,4.8
1981-08-28 06:12:38.230 ,7,0,1.,4.8,0.,4.8,0.,4.8,0.,4.8
1981-08-28 06:12:43.030 ,7,0,0.,4.8,0.,4.8,0.,4.8,0.,4.8
1981-08-28 06:12:47.830 ,7,0,0.,4.8,0.,4.8,0.,4.8,0.,4.8
1981-08-28 06:12:52.630 ,7,0,0.,4.8,0.,4.8,0.,4.8,0.,4.8
1981-08-28 06:12:57.430 ,7,0,0.,4.8,0.,4.8,0.,4.8,0.,4.8
1981-08-28 06:13:02.230 ,7,0,0.,4.8,0.,4.8,0.,4.8,0.,4.8
1981-08-28 06:13:07.030 ,7,0,1.,4.8,0.,4.8,0.,4.8,0.,4.8
1981-08-28 06:13:11.830 ,7,0,0.,4.8,0.,4.8,0.,4.8,0.,4.8
1981-08-28 06:13:16.630 ,7,0,0.,4.8,0.,4.8,0.,4.8,0.,4.8
1981-08-28 06:13:21.430 ,7,0,2.,4.8,0.,4.8,0.,4.8,0.,4.8
1981-08-28 06:13:26.230 ,7,0,0.,4.8,0.,4.8,0.,4.8,0.,4.8
1981-08-28 06:13:31.030 ,7,0,0.,4.8,0.,4.8,0.,4.8,0.,4.8
1981-08-28 06:13:35.830 ,6,0,2.,4.8,0.,4.8,0.,4.8,0.,4.8
1981-08-28 06:13:40.630 ,6,0,0.,4.8,0.,4.8,0.,4.8,0.,4.8
1981-08-28 06:13:45.430 ,6,0,0.,4.8,0.,4.8,0.,4.8,0.,4.8
1981-08-28 06:13:50.230 ,6,0,0.,4.8,0.,4.8,0.,4.8,0.,4.8
1981-08-28 06:13:55.030 ,6,0,0.,4.8,0.,4.8,0.,4.8,0.,4.8
1981-08-28 06:13:59.830 ,6,0,1.,4.8,0.,4.8,0.,4.8,0.,4.8
1981-08-28 06:14:04.630 ,6,0,0.,4.8,0.,4.8,0.,4.8,0.,4.8
1981-08-28 06:14:09.430 ,6,0,0.,4.8,0.,4.8,1.,4.8,0.,4.8
1981-08-28 06:14:14.230 ,6,0,0.,4.8,0.,4.8,0.,4.8,0.,4.8
1981-08-28 06:14:19.030 ,6,0,1.,4.8,0.,4.8,0.,4.8,0.,4.8
1981-08-28 06:14:23.830 ,5,0,0.,4.8,0.,4.8,0.,4.8,0.,4.8
1981-08-28 06:14:28.630 ,5,0,1.,4.8,0.,4.8,0.,4.8,0.,4.8
1981-08-28 06:14:33.430 ,5,0,1.,4.8,0.,4.8,0.,4.8,0.,4.8
1981-08-28 06:14:38.230 ,5,0,0.,4.8,0.,4.8,0.,4.8,0.,4.8
1981-08-28 06:14:43.030 ,5,0,1.,4.8,0.,4.8,0.,4.8,0.,4.8
1981-08-28 06:14:47.830 ,5,0,0.,4.8,0.,4.8,1.,4.8,0.,4.8
1981-08-28 06:14:52.630 ,5,0,0.,4.8,0.,4.8,0.,4.8,0.,4.8
1981-08-28 06:14:57.430 ,5,0,1.,4.8,0.,4.8,0.,4.8,0.,4.8
1981-08-28 06:15:02.230 ,5,0,0.,4.8,0.,4.8,1.,4.8,0.,4.8
1981-08-28 06:15:07.030 ,5,0,0.,4.8,0.,4.8,0.,4.8,0.,4.8
1981-08-28 06:15:11.830 ,4,0,0.,4.8,0.,4.8,1.,4.8,0.,4.8
1981-08-28 06:15:16.630 ,4,0,0.,4.8,0.,4.8,0.,4.8,0.,4.8
1981-08-28 06:15:21.430 ,4,0,0.,4.8,0.,4.8,0.,4.8,0.,4.8
1981-08-28 06:15:26.230 ,4,0,0.,4.8,0.,4.8,0.,4.8,0.,4.8
1981-08-28 06:15:31.030 ,4,0,0.,4.8,0.,4.8,0.,4.8,0.,4.8
1981-08-28 06:15:35.830 ,4,0,0.,4.8,0.,4.8,0.,4.8,0.,4.8
1981-08-28 06:15:40.630 ,4,0,0.,4.8,0.,4.8,0.,4.8,0.,4.8
1981-08-28 06:15:45.430 ,4,0,0.,4.8,0.,4.8,0.,4.8,0.,4.8
1981-08-28 06:15:50.230 ,4,0,0.,4.8,0.,4.8,0.,4.8,0.,4.8
1981-08-28 06:15:55.030 ,4,0,0.,4.8,0.,4.8,0.,4.8,0.,4.8
1981-08-28 06:15:59.830 ,3,0,0.,4.8,0.,4.8,0.,4.8,0.,4.8
1981-08-28 06:16:04.630 ,3,0,2.,4.8,0.,4.8,0.,4.8,0.,4.8
1981-08-28 06:16:09.430 ,3,0,0.,4.8,0.,4.8,0.,4.8,0.,4.8
1981-08-28 06:16:14.230 ,3,0,1.,4.8,0.,4.8,0.,4.8,0.,4.8
1981-08-28 06:16:19.030 ,3,0,0.,4.8,0.,4.8,0.,4.8,0.,4.8
1981-08-28 06:16:23.830 ,3,0,2.,4.8,0.,4.8,1.,4.8,0.,4.8
1981-08-28 06:16:28.630 ,3,0,1.,4.8,0.,4.8,0.,4.8,0.,4.8
1981-08-28 06:16:33.430 ,3,0,0.,4.8,0.,4.8,0.,4.8,0.,4.8
1981-08-28 06:16:38.230 ,3,0,0.,4.8,0.,4.8,0.,4.8,0.,4.8
1981-08-28 06:16:43.030 ,3,0,0.,4.8,0.,4.8,0.,4.8,0.,4.8
1981-08-28 06:16:47.830 ,2,0,0.,4.8,0.,4.8,0.,4.8,0.,4.8
1981-08-28 06:16:52.630 ,2,0,0.,4.8,0.,4.8,0.,4.8,0.,4.8
1981-08-28 06:16:57.430 ,2,0,1.,4.8,0.,4.8,0.,4.8,0.,4.8
1981-08-28 06:17:02.230 ,2,0,1.,4.8,0.,4.8,0.,4.8,0.,4.8
1981-08-28 06:17:07.030 ,2,0,0.,4.8,0.,4.8,0.,4.8,0.,4.8
1981-08-28 06:17:11.830 ,2,0,1.,4.8,0.,4.8,0.,4.8,0.,4.8
1981-08-28 06:17:16.630 ,2,0,0.,4.8,0.,4.8,0.,4.8,0.,4.8
1981-08-28 06:17:21.430 ,2,0,0.,4.8,0.,4.8,0.,4.8,0.,4.8
1981-08-28 06:17:26.230 ,2,0,2.,4.8,0.,4.8,0.,4.8,0.,4.8
1981-08-28 06:17:31.030 ,2,0,1.,4.8,0.,4.8,0.,4.8,0.,4.8
1981-08-28 06:17:35.830 ,1,0,0.,4.8,0.,4.8,0.,4.8,0.,4.8
1981-08-28 06:17:40.630 ,1,0,1.,4.8,0.,4.8,0.,4.8,0.,4.8
1981-08-28 06:17:45.430 ,1,0,0.,4.8,0.,4.8,0.,4.8,0.,4.8
1981-08-28 06:17:50.230 ,1,0,0.,4.8,0.,4.8,1.,4.8,0.,4.8
1981-08-28 06:17:55.030 ,1,0,1.,4.8,0.,4.8,0.,4.8,0.,4.8
1981-08-28 06:17:59.830 ,1,0,0.,4.8,0.,4.8,0.,4.8,0.,4.8
1981-08-28 06:18:04.630 ,1,0,0.,4.8,0.,4.8,0.,4.8,0.,4.8
1981-08-28 06:18:09.430 ,1,0,0.,4.8,0.,4.8,0.,4.8,0.,4.8
1981-08-28 06:18:14.230 ,1,0,0.,4.8,0.,4.8,0.,4.8,0.,4.8
1981-08-28 06:18:19.030 ,1,0,0.,4.8,0.,4.8,0.,4.8,0.,4.8
1981-08-28 06:18:23.830 ,0,0,0.,4.8,0.,4.8,0.,4.8,0.,4.8
1981-08-28 06:18:28.630 ,0,0,1.,4.8,0.,4.8,0.,4.8,0.,4.8
1981-08-28 06:18:33.430 ,0,0,1.,4.8,0.,4.8,1.,4.8,0.,4.8
1981-08-28 06:18:38.230 ,0,0,0.,4.8,0.,4.8,0.,4.8,0.,4.8
1981-08-28 06:18:43.030 ,0,0,1.,4.8,0.,4.8,0.,4.8,0.,4.8
1981-08-28 06:18:47.830 ,0,0,1.,4.8,0.,4.8,0.,4.8,0.,4.8
1981-08-28 06:18:52.630 ,0,0,1.,4.8,0.,4.8,0.,4.8,0.,4.8
1981-08-28 06:18:57.430 ,0,0,0.,4.8,0.,4.8,0.,4.8,0.,4.8
1981-08-28 06:19:02.230 ,0,0,0.,4.8,0.,4.8,0.,4.8,0.,4.8
1981-08-28 06:19:07.030 ,0,0,0.,4.8,0.,4.8,0.,4.8,0.,4.8
1981-08-28 06:19:11.830 ,0,0,1.,4.8,0.,4.8,1.,4.8,0.,4.8
1981-08-28 06:19:16.630 ,0,0,0.,4.8,0.,4.8,0.,4.8,0.,4.8
1981-08-28 06:19:21.430 ,0,0,0.,4.8,0.,4.8,0.,4.8,0.,4.8
1981-08-28 06:19:26.230 ,0,0,0.,4.8,0.,4.8,0.,4.8,0.,4.8
1981-08-28 06:19:31.030 ,0,0,0.,4.8,0.,4.8,0.,4.8,0.,4.8
1981-08-28 06:19:35.830 ,0,0,0.,4.8,0.,4.8,0.,4.8,0.,4.8
1981-08-28 06:19:40.630 ,0,0,1.,4.8,0.,4.8,0.,4.8,0.,4.8
1981-08-28 06:19:45.430 ,0,0,0.,4.8,0.,4.8,0.,4.8,0.,4.8
1981-08-28 06:19:50.230 ,0,0,0.,4.8,0.,4.8,0.,4.8,0.,4.8
1981-08-28 06:19:55.030 ,0,0,0.,4.8,0.,4.8,0.,4.8,0.,4.8
1981-08-28 06:19:59.830 ,1,0,1.,4.8,0.,4.8,0.,4.8,0.,4.8
1981-08-28 06:20:04.630 ,1,0,0.,4.8,0.,4.8,0.,4.8,0.,4.8
1981-08-28 06:20:09.430 ,1,0,0.,4.8,0.,4.8,0.,4.8,0.,4.8
1981-08-28 06:20:14.230 ,1,0,0.,4.8,1.,4.8,0.,4.8,0.,4.8
1981-08-28 06:20:19.030 ,1,0,0.,4.8,0.,4.8,0.,4.8,0.,4.8
1981-08-28 06:20:23.830 ,1,0,0.,4.8,0.,4.8,0.,4.8,0.,4.8
1981-08-28 06:20:28.630 ,1,0,0.,4.8,0.,4.8,0.,4.8,0.,4.8
1981-08-28 06:20:33.430 ,1,0,0.,4.8,0.,4.8,0.,4.8,0.,4.8
1981-08-28 06:20:38.230 ,1,0,1.,4.8,0.,4.8,0.,4.8,0.,4.8
1981-08-28 06:20:43.030 ,1,0,0.,4.8,0.,4.8,1.,4.8,0.,4.8
1981-08-28 06:20:47.830 ,2,0,0.,4.8,0.,4.8,0.,4.8,0.,4.8
1981-08-28 06:20:52.630 ,2,0,0.,4.8,0.,4.8,0.,4.8,0.,4.8
1981-08-28 06:20:57.430 ,2,0,0.,4.8,0.,4.8,1.,4.8,0.,4.8
1981-08-28 06:21:02.230 ,2,0,0.,4.8,0.,4.8,0.,4.8,0.,4.8
1981-08-28 06:21:07.030 ,2,0,1.,4.8,0.,4.8,0.,4.8,0.,4.8
1981-08-28 06:21:11.830 ,2,0,1.,4.8,0.,4.8,0.,4.8,0.,4.8
1981-08-28 06:21:16.630 ,2,0,0.,4.8,0.,4.8,0.,4.8,0.,4.8
1981-08-28 06:21:21.430 ,2,0,0.,4.8,0.,4.8,0.,4.8,0.,4.8
1981-08-28 06:21:26.230 ,2,0,0.,4.8,0.,4.8,0.,4.8,0.,4.8
1981-08-28 06:21:31.030 ,2,0,0.,4.8,0.,4.8,1.,4.8,0.,4.8
1981-08-28 06:21:35.830 ,3,0,0.,4.8,0.,4.8,0.,4.8,0.,4.8
1981-08-28 06:21:40.630 ,3,0,0.,4.8,0.,4.8,1.,4.8,0.,4.8
1981-08-28 06:21:45.430 ,3,0,0.,4.8,0.,4.8,0.,4.8,0.,4.8
1981-08-28 06:21:50.230 ,3,0,1.,4.8,0.,4.8,0.,4.8,0.,4.8
1981-08-28 06:21:55.030 ,3,0,0.,4.8,0.,4.8,0.,4.8,0.,4.8
1981-08-28 06:21:59.830 ,3,0,1.,4.8,0.,4.8,1.,4.8,0.,4.8
1981-08-28 06:22:04.630 ,3,0,0.,4.8,0.,4.8,0.,4.8,0.,4.8
1981-08-28 06:22:09.430 ,3,0,0.,4.8,0.,4.8,0.,4.8,0.,4.8
1981-08-28 06:22:14.230 ,3,0,2.,4.8,1.,4.8,0.,4.8,0.,4.8
1981-08-28 06:22:19.030 ,3,0,0.,4.8,0.,4.8,0.,4.8,0.,4.8
1981-08-28 06:22:23.830 ,4,0,0.,4.8,0.,4.8,0.,4.8,0.,4.8
1981-08-28 06:22:28.630 ,4,0,0.,4.8,0.,4.8,0.,4.8,0.,4.8
1981-08-28 06:22:33.430 ,4,0,1.,4.8,0.,4.8,0.,4.8,0.,4.8
1981-08-28 06:22:38.230 ,4,0,1.,4.8,0.,4.8,0.,4.8,0.,4.8
1981-08-28 06:22:43.030 ,4,0,0.,4.8,0.,4.8,0.,4.8,0.,4.8
1981-08-28 06:22:47.830 ,4,0,1.,4.8,0.,4.8,0.,4.8,0.,4.8
1981-08-28 06:22:52.630 ,4,0,0.,4.8,0.,4.8,0.,4.8,0.,4.8
1981-08-28 06:22:57.430 ,4,0,0.,4.8,0.,4.8,0.,4.8,0.,4.8
1981-08-28 06:23:02.230 ,4,0,3.,4.8,0.,4.8,0.,4.8,0.,4.8
1981-08-28 06:23:07.030 ,4,0,0.,4.8,0.,4.8,0.,4.8,0.,4.8
1981-08-28 06:23:11.830 ,5,0,0.,4.8,0.,4.8,0.,4.8,0.,4.8
1981-08-28 06:23:16.630 ,5,0,0.,4.8,0.,4.8,0.,4.8,0.,4.8
1981-08-28 06:23:21.430 ,5,0,0.,4.8,0.,4.8,0.,4.8,0.,4.8
1981-08-28 06:23:26.230 ,5,0,0.,4.8,0.,4.8,0.,4.8,0.,4.8
1981-08-28 06:23:31.030 ,5,0,1.,4.8,0.,4.8,1.,4.8,0.,4.8
1981-08-28 06:23:35.830 ,5,0,0.,4.8,0.,4.8,0.,4.8,0.,4.8
1981-08-28 06:23:40.630 ,5,0,0.,4.8,0.,4.8,0.,4.8,0.,4.8
1981-08-28 06:23:45.430 ,5,0,0.,4.8,0.,4.8,0.,4.8,0.,4.8
1981-08-28 06:23:50.230 ,5,0,0.,4.8,0.,4.8,0.,4.8,0.,4.8
1981-08-28 06:23:55.030 ,5,0,0.,4.8,0.,4.8,0.,4.8,0.,4.8
1981-08-28 06:23:59.830 ,6,0,0.,4.8,0.,4.8,0.,4.8,0.,4.8
1981-08-28 06:24:04.630 ,6,0,0.,4.8,0.,4.8,0.,4.8,0.,4.8
1981-08-28 06:24:09.430 ,6,0,1.,4.8,0.,4.8,0.,4.8,0.,4.8
1981-08-28 06:24:14.230 ,6,0,0.,4.8,0.,4.8,1.,4.8,0.,4.8
1981-08-28 06:24:19.030 ,6,0,1.,4.8,0.,4.8,0.,4.8,0.,4.8
1981-08-28 06:24:23.830 ,6,0,1.,4.8,0.,4.8,0.,4.8,0.,4.8
1981-08-28 06:24:28.630 ,6,0,1.,4.8,0.,4.8,0.,4.8,0.,4.8
1981-08-28 06:24:33.430 ,6,0,1.,4.8,0.,4.8,0.,4.8,0.,4.8
1981-08-28 06:24:38.230 ,6,0,1.,4.8,0.,4.8,0.,4.8,0.,4.8
1981-08-28 06:24:43.030 ,6,0,1.,4.8,0.,4.8,0.,4.8,0.,4.8
1981-08-28 06:24:47.830 ,7,0,0.,4.8,0.,4.8,0.,4.8,0.,4.8
1981-08-28 06:24:52.630 ,7,0,0.,4.8,0.,4.8,0.,4.8,0.,4.8
1981-08-28 06:24:57.430 ,7,0,0.,4.8,0.,4.8,0.,4.8,0.,4.8
1981-08-28 06:25:02.230 ,7,0,1.,4.8,0.,4.8,0.,4.8,0.,4.8
1981-08-28 06:25:07.030 ,7,0,0.,4.8,0.,4.8,0.,4.8,0.,4.8
1981-08-28 06:25:11.830 ,7,0,0.,4.8,0.,4.8,0.,4.8,0.,4.8
1981-08-28 06:25:16.630 ,7,0,0.,4.8,0.,4.8,0.,4.8,0.,4.8
1981-08-28 06:25:21.430 ,7,0,1.,4.8,0.,4.8,1.,4.8,0.,4.8
1981-08-28 06:25:26.230 ,7,0,0.,4.8,0.,4.8,0.,4.8,0.,4.8
1981-08-28 06:25:31.030 ,7,0,0.,4.8,0.,4.8,0.,4.8,0.,4.8
1981-08-28 06:25:35.830 ,7,0,1.,4.8,0.,4.8,0.,4.8,0.,4.8
1981-08-28 06:25:40.630 ,7,0,0.,4.8,0.,4.8,0.,4.8,0.,4.8
1981-08-28 06:25:45.430 ,7,0,0.,4.8,0.,4.8,0.,4.8,0.,4.8
1981-08-28 06:25:50.230 ,7,0,0.,4.8,0.,4.8,0.,4.8,0.,4.8
1981-08-28 06:25:55.030 ,7,0,1.,4.8,0.,4.8,0.,4.8,0.,4.8
1981-08-28 06:25:59.830 ,6,0,0.,4.8,0.,4.8,0.,4.8,0.,4.8
1981-08-28 06:26:04.630 ,6,0,0.,4.8,0.,4.8,0.,4.8,0.,4.8
1981-08-28 06:26:09.430 ,6,0,0.,4.8,0.,4.8,0.,4.8,0.,4.8
1981-08-28 06:26:14.230 ,6,0,1.,4.8,0.,4.8,0.,4.8,0.,4.8
1981-08-28 06:26:19.030 ,6,0,0.,4.8,0.,4.8,0.,4.8,0.,4.8
1981-08-28 06:26:23.830 ,5,0,0.,4.8,0.,4.8,0.,4.8,0.,4.8
1981-08-28 06:26:28.630 ,5,0,1.,4.8,0.,4.8,0.,4.8,0.,4.8
1981-08-28 06:26:33.430 ,5,0,0.,4.8,0.,4.8,0.,4.8,0.,4.8
1981-08-28 06:26:38.230 ,5,0,1.,4.8,0.,4.8,0.,4.8,0.,4.8
1981-08-28 06:26:43.030 ,5,0,0.,4.8,0.,4.8,0.,4.8,0.,4.8
1981-08-28 06:26:47.830 ,4,0,0.,4.8,0.,4.8,0.,4.8,0.,4.8
1981-08-28 06:26:52.630 ,4,0,1.,4.8,0.,4.8,0.,4.8,0.,4.8
1981-08-28 06:26:57.430 ,4,0,0.,4.8,0.,4.8,0.,4.8,0.,4.8
1981-08-28 06:27:02.230 ,4,0,0.,4.8,0.,4.8,0.,4.8,0.,4.8
1981-08-28 06:27:07.030 ,4,0,1.,4.8,0.,4.8,0.,4.8,0.,4.8
1981-08-28 06:27:11.830 ,3,0,1.,4.8,0.,4.8,0.,4.8,0.,4.8
1981-08-28 06:27:16.630 ,3,0,2.,4.8,0.,4.8,0.,4.8,0.,4.8
1981-08-28 06:27:21.430 ,3,0,0.,4.8,0.,4.8,1.,4.8,0.,4.8
1981-08-28 06:27:26.230 ,3,0,0.,4.8,0.,4.8,0.,4.8,0.,4.8
1981-08-28 06:27:31.030 ,3,0,1.,4.8,0.,4.8,0.,4.8,0.,4.8
1981-08-28 06:27:35.830 ,2,0,2.,4.8,0.,4.8,0.,4.8,0.,4.8
1981-08-28 06:27:40.630 ,2,0,1.,4.8,0.,4.8,0.,4.8,0.,4.8
1981-08-28 06:27:45.430 ,2,0,0.,4.8,0.,4.8,0.,4.8,0.,4.8
1981-08-28 06:27:50.230 ,2,0,0.,4.8,0.,4.8,0.,4.8,0.,4.8
1981-08-28 06:27:55.030 ,2,0,0.,4.8,0.,4.8,0.,4.8,0.,4.8
1981-08-28 06:27:59.830 ,1,0,0.,4.8,0.,4.8,0.,4.8,0.,4.8
1981-08-28 06:28:04.630 ,1,0,1.,4.8,0.,4.8,0.,4.8,0.,4.8
1981-08-28 06:28:09.430 ,1,0,0.,4.8,0.,4.8,0.,4.8,0.,4.8
1981-08-28 06:28:14.230 ,1,0,1.,4.8,0.,4.8,0.,4.8,0.,4.8
1981-08-28 06:28:19.030 ,1,0,1.,4.8,0.,4.8,0.,4.8,0.,4.8
1981-08-28 06:28:23.830 ,0,0,0.,4.8,0.,4.8,0.,4.8,0.,4.8
1981-08-28 06:28:28.630 ,0,0,0.,4.8,0.,4.8,0.,4.8,0.,4.8
1981-08-28 06:28:33.430 ,0,0,1.,4.8,0.,4.8,0.,4.8,0.,4.8
1981-08-28 06:28:38.230 ,0,0,1.,4.8,0.,4.8,0.,4.8,0.,4.8
1981-08-28 06:28:43.030 ,0,0,0.,4.8,0.,4.8,0.,4.8,0.,4.8
1981-08-28 06:28:47.830 ,0,0,0.,4.8,0.,4.8,0.,4.8,0.,4.8
1981-08-28 06:28:52.630 ,0,0,0.,4.8,0.,4.8,0.,4.8,0.,4.8
1981-08-28 06:28:57.430 ,0,0,1.,4.8,0.,4.8,1.,4.8,0.,4.8
1981-08-28 06:29:02.230 ,0,0,0.,4.8,0.,4.8,0.,4.8,0.,4.8
1981-08-28 06:29:07.030 ,0,0,0.,4.8,0.,4.8,0.,4.8,0.,4.8
1981-08-28 06:29:11.830 ,1,0,0.,4.8,0.,4.8,0.,4.8,0.,4.8
1981-08-28 06:29:16.630 ,1,0,0.,4.8,0.,4.8,0.,4.8,0.,4.8
1981-08-28 06:29:21.430 ,1,0,0.,4.8,0.,4.8,0.,4.8,0.,4.8
1981-08-28 06:29:26.230 ,1,0,2.,4.8,0.,4.8,0.,4.8,0.,4.8
1981-08-28 06:29:31.030 ,1,0,0.,4.8,0.,4.8,1.,4.8,0.,4.8
1981-08-28 06:29:35.830 ,2,0,0.,4.8,0.,4.8,0.,4.8,0.,4.8
1981-08-28 06:29:40.630 ,2,0,0.,4.8,0.,4.8,0.,4.8,0.,4.8
1981-08-28 06:29:45.430 ,2,0,1.,4.8,0.,4.8,0.,4.8,0.,4.8
1981-08-28 06:29:50.230 ,2,0,1.,4.8,0.,4.8,0.,4.8,0.,4.8
1981-08-28 06:29:55.030 ,2,0,0.,4.8,0.,4.8,0.,4.8,0.,4.8
1981-08-28 06:29:59.830 ,3,0,0.,4.8,0.,4.8,0.,4.8,0.,4.8
1981-08-28 06:30:04.630 ,3,0,0.,4.8,0.,4.8,0.,4.8,0.,4.8
1981-08-28 06:30:09.430 ,3,0,0.,4.8,0.,4.8,0.,4.8,0.,4.8
1981-08-28 06:30:14.230 ,3,0,0.,4.8,0.,4.8,0.,4.8,0.,4.8
1981-08-28 06:30:19.030 ,3,0,0.,4.8,0.,4.8,0.,4.8,0.,4.8
1981-08-28 06:30:23.830 ,4,0,0.,4.8,0.,4.8,1.,4.8,0.,4.8
1981-08-28 06:30:28.630 ,4,0,2.,4.8,0.,4.8,0.,4.8,0.,4.8
1981-08-28 06:30:33.430 ,4,0,0.,4.8,0.,4.8,0.,4.8,0.,4.8
1981-08-28 06:30:38.230 ,4,0,0.,4.8,0.,4.8,0.,4.8,0.,4.8
1981-08-28 06:30:43.030 ,4,0,0.,4.8,0.,4.8,0.,4.8,0.,4.8
1981-08-28 06:30:47.830 ,5,0,0.,4.8,0.,4.8,0.,4.8,0.,4.8
1981-08-28 06:30:52.630 ,5,0,0.,4.8,0.,4.8,0.,4.8,0.,4.8
1981-08-28 06:30:57.430 ,5,0,2.,4.8,0.,4.8,0.,4.8,0.,4.8
1981-08-28 06:31:02.230 ,5,0,0.,4.8,0.,4.8,0.,4.8,0.,4.8
1981-08-28 06:31:07.030 ,5,0,0.,4.8,0.,4.8,0.,4.8,0.,4.8
1981-08-28 06:30:23.830 ,4,0,0.,4.8,0.,4.8,1.,4.8,0.,4.8
1981-08-28 06:30:28.630 ,4,0,2.,4.8,0.,4.8,0.,4.8,0.,4.8
1981-08-28 06:30:33.430 ,4,0,0.,4.8,0.,4.8,0.,4.8,0.,4.8
1981-08-28 06:30:38.230 ,4,0,0.,4.8,0.,4.8,0.,4.8,0.,4.8
1981-08-28 06:30:43.030 ,4,0,0.,4.8,0.,4.8,0.,4.8,0.,4.8
1981-08-28 06:30:47.830 ,5,0,0.,4.8,0.,4.8,0.,4.8,0.,4.8
1981-08-28 06:30:52.630 ,5,0,0.,4.8,0.,4.8,0.,4.8,0.,4.8
1981-08-28 06:30:57.430 ,5,0,2.,4.8,0.,4.8,0.,4.8,0.,4.8
1981-08-28 06:31:02.230 ,5,0,0.,4.8,0.,4.8,0.,4.8,0.,4.8
1981-08-28 06:31:07.030 ,5,0,0.,4.8,0.,4.8,0.,4.8,0.,4.8
1981-08-28 06:31:11.830 ,6,0,0.,4.8,0.,4.8,0.,4.8,0.,4.8
1981-08-28 06:31:16.630 ,6,0,0.,4.8,0.,4.8,0.,4.8,0.,4.8
1981-08-28 06:31:21.430 ,6,0,0.,4.8,0.,4.8,0.,4.8,0.,4.8
1981-08-28 06:31:26.230 ,6,0,0.,4.8,0.,4.8,0.,4.8,0.,4.8
1981-08-28 06:31:31.030 ,6,0,1.,4.8,0.,4.8,0.,4.8,0.,4.8
1981-08-28 06:31:35.830 ,0,0,2.,4.8,0.,4.8,0.,4.8,0.,4.8
1981-08-28 06:31:40.630 ,0,0,1.,4.8,0.,4.8,0.,4.8,0.,4.8
1981-08-28 06:31:45.430 ,0,0,,0,,0,,0,,0
1981-08-28 06:31:50.230 ,0,0,,0,,0,,0,,0
1981-08-28 06:31:55.030 ,0,0,,0,,0,,0,,0
1981-08-28 06:32:06.430 ,0,0,,0,,0,,0,,0
1981-08-28 06:32:11.230 ,0,0,,0,,0,,0,,0
1981-08-28 06:32:16.030 ,0,0,0.,4.8,0.,4.8,0.,4.8,0.,4.8
1981-08-28 06:32:20.830 ,0,0,0.,4.8,0.,4.8,0.,4.8,0.,4.8
1981-08-28 06:32:25.630 ,0,0,0.,4.8,0.,4.8,0.,4.8,0.,4.8
1981-08-28 06:32:23.830 ,0,0,0.,4.8,1.,4.8,0.,4.8,0.,4.8
1981-08-28 06:32:28.630 ,0,0,1.,4.8,0.,4.8,0.,4.8,0.,4.8
1981-08-28 06:32:33.430 ,0,0,0.,4.8,0.,4.8,1.,4.8,0.,4.8
1981-08-28 06:32:38.230 ,0,0,0.,4.8,0.,4.8,1.,4.8,0.,4.8